Weather in Svetloye

Russia / Udmurt Republic     57°03′32″N   53°37′46″E
temp.,
°C
wind,
m/s
gust,
m/s
humid.,
%
clouds,
%
prec.,
mm/h
press.,
hPa
HPBL,
m
14 may, fri
fri1401:00+17sse22575 0.0 102417
04:00+16s336192 0.0 102529
07:00+19s35575 0.0 1024170
10:00+24ssw454457 0.1 1024547
13:00+27ssw563753 0.0 10231528
16:00+26ssw673941 0.0 10221440
19:00+23s48525 0.0 1021178
22:00+19s4106170 0.0 1020155
15 may, sat
sat1501:00+17ssw39641 0.0 1020146
04:00+16sw3668100 0.0 102091
07:00+19sw356532 0.0 1020216
10:00+24sw465499 0.0 1020662
13:00+26ssw6845100 0.0 10191031
16:00+27sw6939100 0.0 10191192
19:00+23ssw51151100 0.0 1018264
22:00+20sw4105425 0.0 1018187
16 may, sun
sun1601:00+17sw336356 0.0 101842
04:00+16sw336430 0.0 101940
07:00+19ssw375794 0.0 1019208
10:00+25sw584189 0.0 1019599
13:00+28ssw793157 0.0 10181743
16:00+29sw693319 0.0 10172712
19:00+24ssw51147100 0.0 1017241
22:00+20ssw3656100 0.0 101682
17 may, mon
mon1701:00+19ssw3560100 0.0 101666
04:00+17sw3466100 0.0 101756
07:00+19wsw386584 0.0 1018286
10:00+25wsw474811 0.0 10181007
13:00+27wsw693335 0.0 10172066
16:00+28wsw583171 0.0 10172493
19:00+24wsw47475 0.0 1017125
22:00+19ne226839 0.0 101815
18 may, tue
tue1801:00+17ssw0074100 0.6 101811
04:00+16nne11786 0.9 101811
07:00+20ese016716 0.0 1018129
10:00+24s115391 0.0 1018543
13:00+28wsw234095 0.0 10171709
16:00+26ne114441 0.0 101620
19:00+24ese345675 0.0 101763
22:00+18ese347117 0.0 101856